Theta_e
309 309 308 307 306 305 305 309 307 306 307 310 306 304 307 306 306 306 306 306 307 308 308 308 309 308 308 307 307 307 305 305 303 308 307 307 307 308 305 304 308 302 304 305
308 309 309 308 307 306 304 305 307 308 305 309 303 305 306 306 305 306 306 307 306 306 307 309 309 308 307 307 308 308 306 306 302 303 305 306 306 306 307 306 305 308 303 304
307 308 309 308 307 306 305 306 304 310 308 308 305 306 306 306 305 306 305 305 305 306 307 306 308 308 307 307 308 306 306 306 307 303 307 307 307 308 306 304 302 304 303 307
306 306 308 308 308 306 305 307 306 303 303 306 306 307 305 306 305 304 305 305 305 306 306 307 306 306 307 307 307 306 305 306 306 306 306 308 308 308 306 303 305 306 305 308
306 305 307 308 308 307 304 303 303 303 305 304 304 303 305 305 304 303 304 304 305 304 305 305 306 306 305 306 306 306 304 303 305 304 305 305 305 304 304 306 305 304 305 306
306 306 306 307 308 308 305 304 302 304 304 303 301 302 305 304 304 305 305 304 304 304 304 305 305 305 305 306 305 303 304 302 303 305 305 303 301 302 304 304 305 306 306 305
307 306 306 306 306 307 307 306 301 305 304 301 302 304 305 304 304 304 304 304 305 304 304 305 305 305 306 305 305 305 304 304 303 304 302 302 301 303 303 303 304 303 305 305
308 307 306 306 306 306 307 307 304 302 300 303 302 303 304 304 304 303 304 304 304 304 304 302 302 301 302 303 303 304 303 303 304 304 301 300 303 301 301 302 301 302 302 303
306 308 308 306 306 306 306 306 307 303 302 300 302 303 303 301 301 302 303 303 303 303 303 302 303 303 302 303 303 302 303 302 303 302 304 304 304 302 303 302 300 302 304 303
305 306 309 308 306 306 306 306 307 305 302 304 303 301 302 303 302 301 303 302 302 303 300 303 302 301 301 302 303 302 303 303 304 303 303 303 302 302 303 301 302 303 303 304
303 304 306 306 308 306 306 306 306 307 303 305 306 306 303 302 302 300 303 302 301 300 302 301 301 301 300 300 301 302 302 302 302 302 303 303 303 301 301 300 303 304 303 304
295 296 299 303 304 306 306 306 307 306 305 305 306 304 305 305 303 302 303 302 303 302 301 300 299 300 296 297 300 301 303 303 303 302 303 303 303 303 303 304 303 303 304 305
295 295 295 295 297 301 303 305 306 307 305 305 305 307 306 306 306 305 303 303 304 304 305 302 299 301 297 298 298 300 301 302 302 303 303 303 304 304 304 304 303 303 303 303
296 295 295 295 295 295 297 303 305 307 305 300 303 306 306 305 305 303 302 301 302 303 303 301 298 299 300 298 299 298 299 300 301 301 301 302 303 304 304 303 303 303 303 303
296 295 295 295 294 295 296 298 302 304 305 304 303 302 303 304 303 302 301 299 301 301 300 299 299 300 300 298 296 296 300 300 301 303 302 302 303 303 303 303 303 302 302 302
295 295 295 295 294 298 301 301 304 302 304 304 302 304 304 304 302 300 300 299 298 300 301 300 302 302 302 299 298 299 303 303 303 303 303 302 302 302 302 302 302 302 301 300
291 293 294 295 294 300 300 301 303 304 303 301 300 301 298 298 299 297 298 298 298 299 300 300 300 301 301 297 300 301 302 303 302 302 302 300 301 301 301 300 301 300 300 299
291 293 294 294 295 300 302 302 302 302 300 299 299 300 297 296 296 297 297 297 298 298 299 298 298 299 299 298 299 302 302 303 302 302 301 301 300 299 299 299 299 299 298 297
289 293 294 295 297 300 301 302 302 302 302 298 297 301 299 296 297 297 297 297 297 298 298 298 299 299 300 299 300 302 301 301 301 300 300 299 299 299 299 298 297 297 295 294
288 292 295 296 297 297 298 298 299 299 298 299 298 299 297 296 297 296 297 297 299 298 298 298 298 298 299 300 301 301 301 301 301 299 297 297 297 298 297 297 296 295 294 293
289 293 294 295 295 297 297 296 297 296 297 295 296 298 295 296 297 298 297 297 298 300 299 298 299 296 296 299 299 300 300 300 300 300 299 299 299 297 296 295 294 294 295 295
291 291 292 293 295 296 297 297 297 297 298 296 296 296 296 295 297 298 296 298 297 299 297 297 295 294 296 296 297 298 299 299 299 298 297 297 297 296 295 294 295 295 295 292
290 291 292 293 294 294 296 296 296 297 295 294 295 295 295 295 295 297 296 297 297 295 295 295 294 295 295 295 295 296 297 297 297 296 296 295 295 295 295 295 294 291 289 289
290 291 292 289 291 293 292 292 291 291 293 294 295 294 295 295 295 296 296 296 295 295 295 294 291 294 295 294 295 295 295 295 295 295 295 296 296 295 293 289 289 289 289 289
290 289 288 289 290 289 289 290 291 291 293 294 294 294 294 295 295 296 296 294 295 295 294 293 294 293 293 294 294 294 295 295 295 295 294 292 290 289 289 289 289 289 290 290
290 287 286 287 287 288 289 289 290 291 293 293 293 292 292 293 294 292 293 293 291 292 291 294 292 292 293 294 295 295 295 295 295 292 290 289 289 290 291 292 291 291 291 291
287 288 288 288 288 289 290 290 290 290 291 289 286 289 287 284 285 287 289 288 289 293 292 292 290 291 292 292 293 292 292 292 291 290 289 289 289 289 289 290 291 290 289 289
Wind_Speed
15 16 18 21 22 22 17 4 2 5 1 1 3 3 2 2 3 0 2 1 2 0 2 3 1 1 2 1 2 2 2 4 2 2 3 3 1 3 3 4 3 1 3 5
14 15 16 18 20 22 18 7 3 3 2 1 1 2 1 1 3 4 2 2 1 1 2 1 1 2 1 2 3 1 2 1 3 6 4 3 4 4 2 3 3 5 5 5
12 14 15 15 17 18 13 4 2 1 2 1 5 3 3 3 3 1 1 1 1 0 2 1 1 2 2 1 1 1 1 1 5 5 4 4 4 4 4 5 3 3 6 4
13 14 13 14 14 15 8 4 0 1 3 3 1 2 4 3 2 3 3 1 4 2 1 1 2 1 1 1 1 2 2 2 2 3 4 2 3 5 8 8 5 5 4 6
13 13 12 12 12 12 5 6 5 4 4 3 1 2 4 6 2 6 3 3 2 5 4 1 1 2 3 3 2 1 1 3 3 4 2 4 5 8 8 9 6 8 7 16
13 11 13 13 13 12 5 7 5 4 4 1 3 3 2 3 7 2 3 4 2 3 4 2 3 2 2 1 4 4 3 3 2 4 2 5 8 10 13 6 5 7 8 7
14 12 11 12 10 12 11 9 5 1 4 1 3 3 2 2 4 5 4 3 2 1 3 2 1 2 3 3 3 2 4 3 2 3 2 3 5 1 2 11 6 9 3 4
17 13 12 12 11 9 8 9 4 1 2 2 7 3 3 3 2 3 4 5 5 7 3 2 2 3 3 3 1 1 1 2 2 3 3 7 2 3 5 5 5 6 10 7
21 17 14 12 11 11 11 7 6 3 1 3 3 2 4 3 3 2 3 4 8 7 3 2 4 4 5 3 2 2 2 3 2 2 4 6 4 3 4 4 5 2 3 9
18 18 17 17 15 14 14 12 9 6 6 8 4 4 3 3 3 1 3 5 6 8 2 3 4 4 2 4 6 5 3 2 6 4 4 7 6 6 5 3 4 2 2 10
17 18 17 18 18 16 16 17 15 12 8 20 20 19 11 8 6 4 6 4 4 2 4 4 4 5 5 3 5 6 7 7 4 4 4 9 12 6 6 3 3 3 6 8
15 17 18 20 17 18 17 22 21 18 18 14 17 14 19 21 17 10 15 4 5 11 3 3 2 3 1 4 4 3 3 7 5 9 6 3 22 5 11 6 6 7 8 10
17 17 18 19 21 21 17 24 25 22 19 26 31 33 28 29 31 26 11 9 10 8 9 6 3 4 4 4 5 5 3 6 3 1 5 9 16 17 11 10 9 9 10 12
19 19 19 20 21 21 23 24 28 27 9 6 10 24 25 23 19 26 30 23 13 12 11 6 3 3 9 4 4 5 5 8 5 5 7 7 13 18 19 17 14 13 14 15
21 21 21 20 20 20 23 26 32 32 25 4 5 10 17 19 18 18 24 25 18 8 4 3 4 4 2 2 1 4 9 7 5 6 11 6 5 4 13 18 17 15 17 16
23 24 24 24 21 16 16 13 26 35 31 10 3 10 19 22 20 20 20 22 21 16 6 6 6 4 8 4 4 5 24 29 27 15 13 11 8 10 11 14 16 17 16 16
22 25 25 25 23 17 16 10 4 8 29 10 4 4 6 14 15 13 14 16 12 12 8 7 4 5 7 3 7 5 15 24 29 28 20 11 17 12 15 15 17 17 15 14
22 23 24 25 24 21 25 36 27 19 12 7 3 1 4 11 7 6 10 9 12 9 7 4 5 5 5 5 6 18 25 25 19 21 19 19 10 12 12 13 16 16 16 16
23 23 23 24 15 10 12 22 28 27 15 4 4 2 3 12 5 5 8 9 3 6 4 5 8 4 7 7 15 23 16 12 14 17 16 15 13 14 14 15 15 16 18 17
24 20 10 5 4 3 15 19 18 19 12 13 5 5 2 6 8 5 6 5 2 3 4 8 3 4 14 13 17 14 12 13 16 14 14 15 17 18 17 18 16 16 16 15
16 4 4 10 10 12 6 6 5 6 4 9 9 17 6 15 4 3 8 3 2 3 3 5 2 3 4 11 20 21 16 16 16 14 13 14 16 19 18 18 17 15 12 12
9 13 19 12 5 7 4 3 3 3 3 6 3 3 4 7 6 4 5 3 3 3 6 2 3 3 3 1 2 6 10 11 12 12 10 11 14 15 17 17 15 14 13 11
12 5 5 4 5 4 4 3 1 2 2 4 4 3 6 6 6 3 3 5 3 8 2 3 3 3 4 4 4 3 4 8 9 9 10 12 13 15 15 15 15 13 10 7
2 4 5 3 3 2 2 2 2 2 3 2 4 4 2 2 3 2 2 2 2 2 2 3 2 5 6 5 4 5 6 7 7 8 11 12 13 13 14 12 11 8 7 6
5 3 2 2 3 3 4 4 2 1 2 2 3 3 2 0 1 0 2 1 2 3 3 2 5 7 3 3 3 6 6 7 6 8 9 10 12 12 11 9 9 10 12 15
6 4 1 3 1 2 1 2 2 1 1 4 3 1 2 1 1 2 1 3 3 3 2 4 5 4 3 3 2 1 2 5 6 7 8 10 11 11 10 11 14 18 22 25
3 1 3 1 1 3 2 1 2 2 1 1 4 2 3 2 3 2 1 3 2 2 6 4 4 6 6 5 4 3 2 3 4 7 10 12 14 17 19 23 23 23 25 27
Wind_Direction
331 339 343 348 350 358 356 8 41 352 19 7 75 129 145 142 157 151 298 293 288 190 3 10 113 335 4 359 328 10 11 125 149 207 176 143 197 265 177 116 228 199 142 273
323 328 338 348 350 356 357 343 309 351 331 123 330 244 116 142 151 188 187 226 190 304 317 116 90 125 127 360 9 163 327 27 46 352 350 354 206 211 224 111 73 207 136 263
328 328 332 341 348 351 351 348 15 309 43 76 140 179 193 194 196 217 187 250 99 207 259 238 288 157 200 306 28 320 70 218 163 192 219 146 205 219 199 136 122 207 217 256
323 334 330 339 346 350 357 2 308 357 296 326 30 139 174 161 220 230 203 214 219 194 293 259 228 219 272 217 208 301 118 215 258 249 240 206 233 213 194 196 208 174 262 212
336 327 339 341 350 2 27 11 6 335 277 273 277 140 214 198 192 153 229 206 241 184 183 165 183 153 218 250 212 232 138 284 1 290 238 197 255 257 247 231 224 248 265 272
339 329 336 339 352 11 52 17 336 318 291 258 110 238 255 200 155 173 139 203 177 213 201 174 175 176 200 214 180 206 173 158 94 279 310 326 295 229 205 196 210 192 208 235
312 328 320 325 330 358 12 7 357 310 276 227 223 204 194 226 191 164 162 202 167 200 168 168 197 212 228 238 213 167 176 152 142 241 2 254 245 107 169 217 222 220 208 173
289 300 309 307 320 322 340 351 346 256 253 284 308 229 188 156 198 191 185 193 171 154 142 49 27 337 332 246 39 130 295 146 197 181 210 293 240 218 183 185 275 212 215 188
281 279 281 289 277 293 298 310 322 296 212 245 320 273 210 191 214 305 202 193 179 169 131 120 206 226 216 223 253 10 54 75 155 157 196 231 242 192 167 132 286 246 192 179
285 284 276 274 273 268 271 277 278 265 258 259 235 212 208 207 188 162 162 175 174 184 135 164 187 241 173 201 189 168 153 194 206 218 239 284 237 167 146 151 231 183 148 171
276 274 274 275 268 265 265 267 265 265 252 269 269 268 239 226 211 165 149 113 204 127 177 173 216 196 223 189 184 178 171 159 192 163 205 264 157 121 178 203 145 180 184 191
292 287 280 269 272 265 252 259 261 263 255 260 273 264 258 263 256 240 189 221 180 189 154 215 167 213 171 181 230 169 215 192 181 186 211 226 185 227 206 184 191 194 186 191
303 300 296 287 275 267 261 261 255 256 259 272 264 264 269 262 253 240 229 229 222 205 211 186 200 222 135 181 232 200 251 185 214 124 232 209 210 218 214 218 224 219 219 197
303 304 303 302 293 278 270 260 255 247 245 254 251 256 258 265 245 235 231 237 226 220 213 208 186 189 192 218 229 192 196 149 193 258 278 269 253 234 234 237 237 227 217 216
297 301 305 306 301 286 272 260 255 252 228 253 245 258 248 245 246 237 228 227 227 213 204 213 224 224 182 230 16 222 189 184 184 235 220 223 211 217 226 221 226 227 221 211
289 296 303 306 302 293 283 272 253 247 245 253 247 246 233 232 232 229 224 221 220 216 212 221 233 215 210 223 242 238 226 232 236 240 238 223 219 217 209 214 222 226 222 219
294 294 299 302 297 268 253 234 287 236 221 225 245 242 210 204 207 206 211 207 205 205 213 220 223 209 214 243 249 226 218 235 244 244 240 228 241 239 230 229 220 217 218 211
301 300 300 303 292 269 244 232 237 255 205 240 253 215 187 183 169 181 186 188 201 212 222 198 186 192 207 251 224 233 239 242 243 238 240 255 250 219 214 212 208 205 202 197
304 295 301 311 280 251 233 233 233 221 215 225 216 202 232 172 156 155 170 180 190 212 215 207 170 189 223 214 228 243 240 243 246 225 231 238 234 223 214 211 205 202 191 188
310 298 307 267 264 216 158 163 188 205 203 209 203 171 219 182 169 168 161 189 227 205 222 172 217 257 246 237 241 245 236 250 238 203 202 207 202 205 207 208 206 199 189 180
314 267 252 274 302 206 222 220 203 187 181 203 211 191 154 187 164 160 212 186 187 226 183 192 220 267 254 257 241 237 227 229 235 245 246 238 235 210 201 191 186 190 202 207
279 291 306 288 241 238 244 210 193 201 223 172 187 156 151 163 158 159 182 207 179 226 147 170 254 258 299 302 250 216 220 218 220 223 221 212 206 206 194 186 195 197 201 206
300 258 246 216 232 243 212 237 225 212 154 158 169 145 160 156 187 192 170 197 205 126 165 228 235 299 296 294 271 247 207 197 211 198 194 192 185 184 192 196 198 195 198 208
229 249 235 178 262 38 18 334 335 339 4 149 158 119 143 147 183 139 194 111 134 172 230 242 259 338 319 257 232 211 191 189 201 194 184 196 206 198 197 194 194 207 236 267
194 254 257 244 242 235 268 277 285 331 39 64 72 72 127 230 137 223 114 90 210 211 232 234 360 347 325 261 256 223 218 201 198 212 213 203 197 198 206 216 235 261 276 286
181 221 227 237 279 248 219 238 304 213 101 60 44 27 39 73 358 77 228 169 227 257 256 360 360 13 28 24 25 30 220 228 235 229 229 226 228 238 254 263 274 284 289 289
196 240 226 284 309 35 54 21 338 170 32 12 74 122 217 2 42 326 216 206 238 321 353 12 41 47 42 38 33 19 342 304 276 263 260 263 267 271 275 281 288 289 289 289